Location: Palomar Mountain Lodge
(33.3110°N, 116.8495°W)
Time: 21:25:19
(UTC-07:00)

Terra - Pass Details

Date: 14 June 2018
Orbit: 701 x 703 km, 98.2° (Epoch: 24 June)

Event Time Altitude Azimuth Distance (km) Brightness Sun altitude
Exits shadow 23:26:29 38° 289° (WNW) 1,069 2.9 -30.2°
Drops below altitude 10° 23:30:07 10° 332° (NNW) 2,168 5.2 -30.4°
Sets 23:32:29 0° 339° (NNW) 3,090 6.3 -30.6°
